sat.trackr.live / text

‹ back to catalog

STARLINK-36247

NORAD 68245 · 2026-054P

PAYLOAD ACTIVE UNKNOWN

§ Identity

Operator
Country
US
Launch date
2026-03-17
Launch site
AFETR
Launch vehicle
Mass (kg)
RCS (m²)

Purposes: comms

External: N2YO · Heavens-Above · Gunter

§ Orbital elements

Epoch: 2026-09-19T22:49:40.944576Z

Period
93.85 min
Inclination
53.1581°
Eccentricity
0.0001124
Mean motion
15.34442309 rev/d
Perigee alt
461.8 km
Apogee alt
463.3 km
Semi-major
6,840.7 km
B*
5.6286e-4
RAAN
104.6380°
Arg perigee
78.1292°
Mean anomaly
281.9837°
Rev number
2,887

§ Raw data

STARLINK-362471 68245U 26054P   26262.95116834  .00018714  00000+0  56286-3 0  99972 68245  53.1581 104.6380 0001124  78.1292 281.9837 15.34442309 28877

JSON: /api/v1/satellites/68245 · /tle

For live sub-satellite position, see the globe view (requires WebGL).

§ Visibility from observer

Set your observer location to see the next 7 days of passes ≥ 10°. The values pass through the URL so the page stays shareable.

No JS? Fill the form by hand. The geolocation button needs JavaScript.